KA0WKG Weather Reports


time (UTC)temp
F
wind
direction
speed
knots
gust
knots
rain 1hr
in
rain 24hr
in
rain mn
in
humidity
%
barometer
mb
20260906204008 90 161 7.0 19.1 0.00 0.01 0.00 40 1013.9
20260906203506 90 131 8.7 20.0 0.00 0.01 0.00 40 1013.9
20260906202508 89 154 7.0 14.8 0.00 0.01 0.00 42 1014.1
20260906202007 89 146 7.8 24.3 0.00 0.01 0.00 42 1014.0
20260906201507 90 157 10.4 24.3 0.00 0.01 0.00 41 1014.2
20260906201006 90 172 6.1 14.8 0.00 0.01 0.00 44 1014.2
20260906200507 91 153 10.4 15.6 0.00 0.01 0.00 42 1014.3
20260906195507 90 178 10.4 15.6 0.00 0.01 0.00 43 1014.3
20260906195006 89 185 8.7 18.2 0.00 0.01 0.00 44 1014.4
20260906194507 89 170 11.3 18.2 0.00 0.01 0.00 43 1014.4
20260906194007 89 181 10.4 17.4 0.00 0.01 0.00 45 1014.5
20260906193508 88 176 9.6 15.6 0.00 0.01 0.00 46 1014.6
20260906192506 87 176 7.8 17.4 0.00 0.01 0.00 46 1014.8
20260906192007 88 161 10.4 19.1 0.00 0.01 0.00 46 1014.8
20260906191506 88 191 11.3 19.1 0.00 0.01 0.00 46 1015.1
20260906191007 88 155 11.3 19.1 0.00 0.01 0.00 46 1015.1
20260906190506 88 192 11.3 19.1 0.00 0.01 0.00 45 1015.2
20260906185506 87 186 10.4 20.0 0.00 0.01 0.00 46 1015.3
20260906185006 87 180 13.9 20.0 0.00 0.01 0.00 47 1015.4
20260906184506 87 209 8.7 20.0 0.00 0.01 0.00 47 1015.5
20260906184008 87 174 8.7 20.0 0.00 0.01 0.00 47 1015.5
20260906183506 87 181 12.2 20.0 0.00 0.01 0.00 47 1015.6
20260906183006 87 213 11.3 20.0 0.00 0.01 0.00 49 1015.6
20260906182007 85 168 13.9 20.0 0.00 0.01 0.00 50 1015.5
20260906181507 86 177 13.0 20.0 0.00 0.01 0.00 50 1015.7
20260906181006 85 165 13.9 20.9 0.00 0.01 0.00 51 1015.8
20260906180507 84 167 12.2 20.9 0.00 0.01 0.00 52 1015.9
20260906180006 84 162 15.6 20.9 0.00 0.01 0.00 54 1015.9
20260906175505 84 168 12.2 20.0 0.00 0.01 0.00 54 1016.0
20260906175005 83 172 11.3 19.1 0.00 0.01 0.00 55 1016.1
20260906174505 84 179 13.9 20.9 0.00 0.01 0.00 55 1016.1
20260906174006 83 195 13.9 20.9 0.00 0.01 0.00 55 1016.3
20260906173506 83 166 14.8 22.6 0.00 0.01 0.00 56 1016.3
20260906173006 83 180 13.9 24.3 0.00 0.01 0.00 57 1016.5
20260906172007 82 168 13.9 26.1 0.00 0.01 0.00 58 1016.6
20260906171506 81 172 14.8 22.6 0.00 0.01 0.00 58 1016.6
20260906171006 81 156 13.9 21.7 0.00 0.01 0.00 59 1016.9
20260906170506 81 172 13.0 21.7 0.00 0.01 0.00 62 1016.9
20260906165507 81 157 13.0 26.1 0.00 0.01 0.00 62 1016.8
20260906165006 79 181 17.4 26.1 0.00 0.01 0.00 64 1016.9
20260906164506 79 185 14.8 20.9 0.00 0.01 0.00 66 1017.0
20260906164006 80 170 13.9 20.9 0.00 0.01 0.00 63 1017.1
20260906163507 79 159 14.8 20.9 0.00 0.01 0.00 65 1017.3
20260906163006 79 164 14.8 20.9 0.00 0.01 0.00 64 1017.4
20260906162506 79 149 12.2 20.0 0.00 0.01 0.00 65 1017.6
20260906162006 79 152 10.4 15.6 0.00 0.01 0.00 64 1017.6
20260906161506 79 175 11.3 15.6 0.00 0.01 0.00 66 1017.8
20260906160505 78 157 5.2 10.4 0.00 0.01 0.00 68 1017.8
20260906160006 77 167 6.1 13.0 0.00 0.01 0.00 69 1017.8
20260906155505 77 187 8.7 13.0 0.00 0.01 0.00 72 1017.8
20260906155006 77 152 7.0 10.4 0.00 0.01 0.00 70 1017.8
20260906152005 75 159 6.1 10.4 0.00 0.01 0.00 74 1017.6
20260906151505 75 166 6.1 10.4 0.00 0.01 0.00 74 1017.6
20260906151005 74 176 5.2 10.4 0.00 0.01 0.00 77 1017.5
20260906150506 73 150 6.1 12.2 0.00 0.01 0.00 78 1017.5
20260906150006 74 153 7.8 12.2 0.00 0.01 0.00 76 1017.5
20260906145505 73 177 6.1 12.2 0.00 0.01 0.00 79 1017.5
20260906144505 71 143 5.2 8.7 0.00 0.01 0.00 82 1017.6
20260906143505 71 138 5.2 10.4 0.00 0.01 0.00 81 1017.6
20260906143006 71 131 5.2 10.4 0.00 0.01 0.00 80 1017.5
20260906142507 71 160 7.0 12.2 0.00 0.01 0.00 80 1017.3
20260906142005 70 153 7.0 12.2 0.00 0.01 0.00 82 1017.1
20260906141505 70 153 7.8 11.3 0.00 0.01 0.00 82 1017.1
20260906141005 69 152 6.1 8.7 0.00 0.01 0.00 83 1017.1
20260906140505 69 148 4.3 6.1 0.00 0.01 0.00 84 1017.4
20260906140005 69 161 4.3 6.1 0.00 0.01 0.00 84 1017.4
20260906135505 68 143 4.3 7.8 0.00 0.01 0.00 85 1017.3
20260906135004 68 89 2.6 7.8 0.00 0.01 0.00 85 1017.3
20260906134504 68 143 3.5 7.8 0.00 0.01 0.00 85 1017.2
20260906134005 68 177 3.5 10.4 0.00 0.01 0.00 87 1017.1
20260906133505 67 189 2.6 10.4 0.00 0.01 0.00 88 1016.8
20260906133006 66 178 7.0 10.4 0.00 0.01 0.00 89 1016.7
20260906132505 65 167 6.1 12.2 0.00 0.01 0.00 92 1016.8
20260906132004 65 187 6.1 12.2 0.00 0.01 0.00 93 1016.7
20260906131504 64 181 7.8 10.4 0.00 0.01 0.00 94 1016.4
20260906130506 63 188 5.2 7.8 0.00 0.01 0.00 93 1016.7
20260906130005 63 179 5.2 8.7 0.00 0.01 0.00 93 1016.6
20260906125505 63 192 6.1 10.4 0.00 0.01 0.01 93 1016.3
20260906125004 63 188 7.8 10.4 0.00 0.01 0.01 92 1016.2
20260906124506 63 182 7.0 11.3 0.00 0.01 0.01 93 1016.1
20260906124004 63 189 7.8 11.3 0.00 0.01 0.01 93 1016.1
20260906123505 63 192 7.8 11.3 0.00 0.01 0.01 92 1016.1
20260906123007 63 188 6.1 11.3 0.00 0.01 0.01 92 1016.0
20260906122505 63 191 7.8 11.3 0.00 0.01 0.01 92 1015.9
20260906122007 62 188 8.7 12.2 0.00 0.01 0.01 92 1015.8
20260906121505 63 187 8.7 12.2 0.00 0.01 0.01 92 1015.9
20260906120505 62 194 7.0 8.7 0.00 0.01 0.01 92 1015.9
20260906120005 63 201 7.0 8.7 0.00 0.01 0.01 92 1016.1
20260906115506 63 209 6.1 8.7 0.00 0.01 0.01 92 1016.0
20260906115004 63 186 6.1 11.3 0.00 0.01 0.01 92 1016.0
20260906114504 63 178 7.8 11.3 0.00 0.01 0.01 92 1016.0
20260906114006 63 169 7.8 10.4 0.00 0.01 0.01 92 1016.0
20260906113505 63 163 5.2 7.8 0.00 0.01 0.01 92 1016.2
20260906113006 63 145 5.2 8.7 0.00 0.01 0.01 92 1016.1
20260906112505 63 160 5.2 8.7 0.00 0.01 0.01 92 1016.1
20260906112005 63 154 6.1 10.4 0.00 0.01 0.01 93 1016.1
20260906111505 63 151 6.1 10.4 0.00 0.01 0.01 93 1016.1
20260906111005 63 150 6.1 10.4 0.00 0.01 0.01 93 1016.2
20260906110004 63 159 7.0 10.4 0.00 0.01 0.01 93 1016.3
20260906105004 63 152 6.1 8.7 0.00 0.01 0.01 94 1016.4
20260906104005 63 151 5.2 7.0 0.00 0.01 0.01 94 1016.4
20260906103504 63 146 6.1 7.0 0.00 0.01 0.01 94 1016.5
20260906102504 63 101 4.3 7.0 0.00 0.01 0.01 92 1016.3
20260906102005 63 86 5.2 7.8 0.00 0.01 0.01 92 1016.2
20260906101004 63 43 6.1 7.8 0.00 0.01 0.01 91 1016.2
20260906100504 64 58 5.2 7.0 0.00 0.01 0.01 91 1016.2
20260906095504 64 46 6.1 7.8 0.00 0.01 0.01 90 1016.1
20260906095004 63 96 4.3 7.8 0.00 0.01 0.01 91 1015.9
20260906094507 64 99 5.2 7.8 0.00 0.01 0.01 90 1015.9
20260906094004 64 88 5.2 11.3 0.00 0.01 0.01 90 1015.8
20260906093504 64 126 6.1 11.3 0.00 0.01 0.01 90 1015.6
20260906093004 64 121 7.8 10.4 0.00 0.01 0.01 90 1015.4
20260906092504 64 126 7.0 11.3 0.00 0.01 0.01 89 1015.6
20260906092005 64 103 7.8 11.3 0.00 0.01 0.01 89 1015.8
20260906091504 64 111 6.1 10.4 0.00 0.01 0.01 89 1015.9
20260906091005 64 149 5.2 7.8 0.00 0.01 0.01 88 1016.0
20260906090504 64 142 5.2 11.3 0.00 0.01 0.01 88 1016.0
20260906090005 64 125 6.1 13.0 0.00 0.01 0.01 88 1015.9
20260906085504 64 92 7.8 13.9 0.00 0.01 0.01 88 1015.9
20260906085005 64 82 9.6 14.8 0.00 0.01 0.01 87 1015.8
20260906084504 64 86 10.4 17.4 0.00 0.01 0.01 87 1015.7
20260906084005 64 78 13.0 17.4 0.00 0.01 0.01 87 1015.6
20260906083504 64 85 10.4 17.4 0.00 0.01 0.01 86 1015.8
20260906082004 65 73 10.4 17.4 0.00 0.01 0.01 83 1015.7
20260906081504 66 64 12.2 22.6 0.00 0.01 0.01 82 1015.8
20260906080504 66 53 13.9 26.1 0.00 0.01 0.01 79 1015.9
20260906080004 66 49 18.2 26.1 0.00 0.01 0.01 78 1016.0
20260906075505 66 41 18.2 25.2 0.00 0.01 0.01 79 1016.0
20260906075004 66 40 15.6 24.3 0.00 0.01 0.01 79 1016.2
20260906074504 66 38 14.8 24.3 0.00 0.01 0.01 79 1016.3
20260906074005 65 40 14.8 20.9 0.00 0.01 0.01 80 1016.4
20260906073505 66 40 13.9 27.8 0.00 0.01 0.01 80 1016.4
20260906073004 66 44 16.5 27.8 0.00 0.01 0.01 80 1016.6
20260906072505 66 38 13.9 26.1 0.00 0.01 0.01 80 1016.7
20260906072009 66 36 15.6 26.1 0.00 0.01 0.01 78 1016.7
20260906071509 66 37 15.6 26.1 0.00 0.01 0.01 78 1016.7
20260906071011 66 34 14.8 25.2 0.00 0.01 0.01 80 1016.8
20260906070509 66 24 15.6 26.9 0.00 0.01 0.01 81 1016.7
20260906070009 66 24 18.2 27.8 0.00 0.01 0.01 81 1016.6
20260906065511 66 27 20.0 27.8 0.00 0.01 0.01 79 1016.6
20260906065010 66 27 18.2 25.2 0.00 0.01 0.01 78 1016.8
20260906064509 66 18 15.6 27.8 0.00 0.01 0.01 79 1016.8
20260906064010 67 19 13.9 27.8 0.00 0.01 0.01 78 1016.9
20260906063510 67 16 18.2 33.0 0.00 0.01 0.01 77 1016.7
20260906063010 66 20 19.1 35.6 0.01 0.01 0.01 78 1016.9
20260906062009 65 32 16.5 33.0 0.01 0.01 0.01 83 1017.2
20260906061510 65 15 18.2 32.2 0.01 0.01 0.01 85 1017.0
20260906061009 65 14 19.1 32.2 0.01 0.01 0.01 86 1017.4
20260906060509 64 7 20.9 31.3 0.01 0.01 0.01 86 1017.5
20260906060010 64 5 20.0 33.9 0.01 0.01 0.01 89 1017.6
20260906055509 64 3 20.9 34.8 0.01 0.01 0.01 90 1017.5
20260906055011 64 357 22.6 39.1 0.01 0.01 0.01 90 1017.8
20260906054009 65 348 24.3 35.6 0.01 0.01 0.01 90 1017.5
20260906053509 66 353 21.7 30.4 0.01 0.01 0.01 90 1017.4
20260906052508 67 331 18.2 31.3 0.00 0.00 0.00 88 1017.5
20260906052008 69 330 21.7 38.2 0.00 0.00 0.00 85 1017.5
20260906051508 72 325 24.3 38.2 0.00 0.00 0.00 74 1017.7
20260906050509 75 288 6.1 17.4 0.00 0.00 0.00 66 1016.2
20260906050008 75 324 6.1 18.2 0.00 0.00 0.00 67 1016.1
20260906045510 75 333 12.2 18.2 0.00 0.00 0.00 64 1015.9
20260906045009 77 347 0.9 7.8 0.00 0.00 0.00 63 1015.3
20260906044008 76 146 6.1 7.8 0.00 0.00 0.00 62 1014.7
20260906043009 76 143 7.8 10.4 0.00 0.00 0.00 63 1014.5
20260906042510 76 140 7.8 10.4 0.00 0.00 0.00 62 1014.5
20260906042008 76 139 7.0 8.7 0.00 0.00 0.00 62 1014.5
20260906041508 76 137 6.1 8.7 0.00 0.00 0.00 62 1014.3
20260906041010 76 127 7.0 8.7 0.00 0.00 0.00 62 1014.4
20260906040508 77 110 7.0 11.3 0.00 0.00 0.00 61 1014.6
20260906040009 77 98 7.8 11.3 0.00 0.00 0.00 61 1014.7
20260906035508 77 97 7.8 11.3 0.00 0.00 0.00 60 1014.7
20260906034509 78 95 7.8 11.3 0.00 0.00 0.00 59 1014.7
20260906034008 78 98 7.8 11.3 0.00 0.00 0.00 58 1014.7
20260906033508 78 102 7.8 10.4 0.00 0.00 0.00 58 1014.7
20260906033008 78 97 7.0 10.4 0.00 0.00 0.00 58 1014.7
20260906032008 77 99 7.8 13.0 0.00 0.00 0.00 59 1014.6
20260906031508 77 89 7.8 13.0 0.00 0.00 0.00 60 1014.5
20260906031008 77 85 10.4 13.0 0.00 0.00 0.00 60 1014.2
20260906030508 77 77 7.8 13.9 0.00 0.00 0.00 60 1014.0
20260906030008 76 76 8.7 13.9 0.00 0.00 0.00 62 1014.0
20260906025508 75 67 7.8 12.2 0.00 0.00 0.00 65 1014.0
20260906024508 75 74 7.0 10.4 0.00 0.00 0.00 66 1013.9
20260906024008 75 75 6.1 7.8 0.00 0.00 0.00 66 1014.0
20260906023508 75 69 7.8 7.8 0.00 0.00 0.00 65 1014.1
20260906023008 76 62 7.0 7.8 0.00 0.00 0.00 65 1014.2
20260906022509 76 69 6.1 7.8 0.00 0.00 0.00 64 1014.0
20260906022008 76 72 7.0 7.8 0.00 0.00 0.00 64 1013.9
20260906021508 77 71 6.1 8.7 0.00 0.00 0.00 62 1013.9
20260906020508 78 66 7.0 7.8 0.00 0.00 0.00 61 1013.9
20260906020008 79 58 6.1 7.0 0.00 0.00 0.00 59 1013.8
20260906015008 80 41 5.2 7.8 0.00 0.00 0.00 55 1013.8
20260906014508 80 94 6.1 7.8 0.00 0.00 0.00 54 1013.7
20260906014007 81 109 6.1 7.8 0.00 0.00 0.00 53 1013.6
20260906013008 82 120 7.0 10.4 0.00 0.00 0.00 51 1013.5
20260906012508 82 127 7.8 10.4 0.00 0.00 0.00 50 1013.5
20260906012007 82 126 7.8 10.4 0.00 0.00 0.00 50 1013.5
20260906011507 82 126 7.8 11.3 0.00 0.00 0.00 49 1013.4
20260906011008 83 125 7.8 11.3 0.00 0.00 0.00 49 1013.5
20260906010509 83 122 7.8 11.3 0.00 0.00 0.00 49 1013.6
20260906005507 83 117 7.0 10.4 0.00 0.00 0.00 49 1013.7
20260906005008 83 110 7.0 8.7 0.00 0.00 0.00 48 1013.8
20260906004509 84 108 6.1 8.7 0.00 0.00 0.00 47 1013.9
20260906004008 84 117 6.1 8.7 0.00 0.00 0.00 46 1013.9
20260906003508 85 123 6.1 11.3 0.00 0.00 0.00 44 1013.8
20260906003008 85 135 7.8 12.2 0.00 0.00 0.00 42 1013.7
20260906002508 85 134 8.7 12.2 0.00 0.00 0.00 42 1013.6
20260906002008 86 132 10.4 13.9 0.00 0.00 0.00 42 1013.4
20260906001507 86 135 10.4 15.6 0.00 0.00 0.00 40 1013.3
20260906001007 86 137 11.3 15.6 0.00 0.00 0.00 39 1013.2
20260906000007 87 147 9.6 18.2 0.00 0.00 0.00 38 1013.2
20260905235507 87 146 10.4 21.7 0.00 0.00 0.00 38 1013.0
20260905235007 87 147 12.2 21.7 0.00 0.00 0.00 38 1012.9
20260905234509 87 145 11.3 17.4 0.00 0.00 0.00 38 1012.5
20260905234008 88 146 13.0 19.1 0.00 0.00 0.00 37 1012.2
20260905233508 88 144 13.9 21.7 0.00 0.00 0.00 37 1012.1
20260905233008 88 143 13.9 21.7 0.00 0.00 0.00 36 1012.1
20260905232507 89 145 11.3 27.8 0.00 0.00 0.00 36 1012.1
20260905231008 90 161 14.8 26.9 0.00 0.00 0.00 33 1012.3
20260905230507 90 148 14.8 26.9 0.00 0.00 0.00 32 1012.2
20260905230008 90 159 15.6 26.9 0.00 0.00 0.00 32 1012.2
20260905225508 90 150 12.2 22.6 0.00 0.00 0.00 32 1011.9
20260905225007 90 151 13.9 22.6 0.00 0.00 0.00 32 1011.7
20260905224508 90 153 13.9 27.8 0.00 0.00 0.00 33 1011.7
20260905223507 91 154 17.4 26.9 0.00 0.00 0.00 32 1011.9
20260905223007 92 155 16.5 25.2 0.00 0.00 0.00 32 1012.0
20260905222507 93 154 14.8 26.9 0.00 0.00 0.00 32 1012.1
20260905222007 94 150 17.4 26.9 0.00 0.00 0.00 29 1011.9
20260905221507 95 145 15.6 27.8 0.00 0.00 0.00 28 1012.0
20260905221007 95 148 15.6 28.7 0.00 0.00 0.00 28 1011.8
20260905220507 95 136 13.9 28.7 0.00 0.00 0.00 28 1011.7
20260905215507 95 139 15.6 22.6 0.00 0.00 0.00 27 1011.9
20260905215007 94 141 13.9 20.0 0.00 0.00 0.00 30 1012.0
20260905214507 93 140 13.9 24.3 0.00 0.00 0.00 31 1012.0
20260905214007 93 134 13.0 24.3 0.00 0.00 0.00 31 1012.0
20260905213507 95 152 12.2 22.6 0.00 0.00 0.00 30 1012.1
20260905213007 94 141 15.6 22.6 0.00 0.00 0.00 30 1012.2
20260905212507 93 126 11.3 19.1 0.00 0.00 0.00 33 1012.3
20260905211507 93 109 11.3 19.1 0.00 0.00 0.00 35 1012.5
20260905211007 93 119 12.2 19.1 0.00 0.00 0.00 34 1012.4
20260905210007 93 122 13.9 19.1 0.00 0.00 0.00 36 1012.7
20260905205506 93 120 12.2 19.1 0.00 0.00 0.00 35 1012.8
20260905205007 93 121 14.8 19.1 0.00 0.00 0.00 35 1012.9
20260905204507 93 126 13.0 19.1 0.00 0.00 0.00 35 1012.9